When you browse on this site, cookies collect data to enhance your experience and personalize the content and advertising you see.
Visit our Privacy Policy to learn more. By continuing to use the site, you agree to this use of cookies and data.
  • en France
  • Liste des pays
  • À 7 jours
  • Température de l'eau
  • Carte satellitaire
  • Carte météo
  • Widgets météo
  • user-avatar
    Se connecter

    Météo par heure à Gjirokastёr

    Ce jour, 20 Avril, Samedi

    Heure Température Précipitation Vent Pression Humidité
    00:00 +4°C° 0 mm 2 m/s 655 mmHg 81%
    01:00 +3°C° 0 mm 2 m/s 655 mmHg 80%
    02:00 +3°C° 0 mm 2 m/s 654 mmHg 79%
    03:00 +3°C° 0 mm 2 m/s 654 mmHg 79%
    04:00 +3°C° 0 mm 2 m/s 654 mmHg 78%
    05:00 +4°C° 0 mm 2 m/s 654 mmHg 75%
    06:00 +6°C° 0 mm 1 m/s 655 mmHg 72%
    07:00 +8°C° 0 mm 1 m/s 655 mmHg 70%
    08:00 +9°C° 0 mm 1 m/s 655 mmHg 63%
    09:00 +11°C° 0 mm 1 m/s 656 mmHg 56%
    10:00 +12°C° 0 mm 1 m/s 657 mmHg 50%
    11:00 +13°C° 0 mm 1 m/s 657 mmHg 49%
    12:00 +13°C° 0 mm 2 m/s 657 mmHg 49%
    13:00 +13°C° 0 mm 2 m/s 657 mmHg 48%
    14:00 +13°C° 0.1 mm 2 m/s 656 mmHg 52%
    15:00 +12°C° 0.1 mm 2 m/s 656 mmHg 55%
    16:00 +12°C° 0.1 mm 2 m/s 656 mmHg 59%
    17:00 +10°C° 0.1 mm 2 m/s 656 mmHg 63%
    18:00 +9°C° 0.1 mm 1 m/s 655 mmHg 68%
    19:00 +8°C° 0.1 mm 1 m/s 655 mmHg 73%
    20:00 +8°C° 0 mm 1 m/s 655 mmHg 74%
    21:00 +7°C° 0 mm 1 m/s 655 mmHg 74%
    22:00 +7°C° 0 mm 1 m/s 656 mmHg 75%
    23:00 +7°C° 0 mm 1 m/s 656 mmHg 76%

    Demain, 21 Avril, Dimanche

    Heure Température Précipitation Vent Pression Humidité
    00:00 +6°C° 0 mm 2 m/s 656 mmHg 77%
    01:00 +6°C° 0 mm 2 m/s 656 mmHg 78%
    02:00 +6°C° 0 mm 2 m/s 656 mmHg 80%
    03:00 +5°C° 0 mm 2 m/s 655 mmHg 82%
    04:00 +5°C° 0 mm 2 m/s 655 mmHg 84%
    05:00 +6°C° 0 mm 2 m/s 655 mmHg 82%
    06:00 +6°C° 0 mm 2 m/s 656 mmHg 81%
    07:00 +7°C° 0 mm 2 m/s 656 mmHg 79%
    08:00 +7°C° 0.1 mm 3 m/s 656 mmHg 78%
    09:00 +8°C° 0.1 mm 3 m/s 656 mmHg 76%
    10:00 +9°C° 0.1 mm 3 m/s 656 mmHg 75%
    11:00 +9°C° 0.3 mm 3 m/s 656 mmHg 74%
    12:00 +9°C° 0.3 mm 3 m/s 656 mmHg 73%
    13:00 +10°C° 0.3 mm 3 m/s 656 mmHg 72%
    14:00 +9°C° 0.4 mm 3 m/s 655 mmHg 75%
    15:00 +9°C° 0.4 mm 2 m/s 655 mmHg 77%
    16:00 +8°C° 0.4 mm 2 m/s 655 mmHg 79%
    17:00 +7°C° 0.1 mm 2 m/s 654 mmHg 84%
    18:00 +7°C° 0.1 mm 2 m/s 654 mmHg 88%
    19:00 +7°C° 0.1 mm 1 m/s 654 mmHg 93%
    20:00 +6°C° 0 mm 1 m/s 654 mmHg 93%
    21:00 +6°C° 0 mm 1 m/s 654 mmHg 94%
    22:00 +6°C° 0 mm 1 m/s 654 mmHg 95%
    23:00 +6°C° 0 mm 1 m/s 653 mmHg 95%

    Après-demain, 22 Avril, Lundi

    Heure Température Précipitation Vent Pression Humidité
    00:00 +5°C° 0 mm 1 m/s 653 mmHg 95%
    01:00 +5°C° 0 mm 1 m/s 653 mmHg 95%
    02:00 +5°C° 0 mm 1 m/s 653 mmHg 95%
    03:00 +5°C° 0 mm 1 m/s 653 mmHg 95%
    04:00 +5°C° 0 mm 1 m/s 652 mmHg 95%
    05:00 +4°C° 0.1 mm 2 m/s 652 mmHg 93%
    06:00 +5°C° 0.1 mm 2 m/s 652 mmHg 91%
    07:00 +5°C° 0.1 mm 2 m/s 652 mmHg 88%
    08:00 +7°C° 0 mm 2 m/s 653 mmHg 81%
    09:00 +8°C° 0 mm 3 m/s 653 mmHg 73%
    10:00 +10°C° 0 mm 3 m/s 653 mmHg 66%
    11:00 +11°C° 0 mm 4 m/s 654 mmHg 62%
    12:00 +12°C° 0 mm 4 m/s 654 mmHg 58%
    13:00 +13°C° 0 mm 4 m/s 654 mmHg 54%
    14:00 +12°C° 0.1 mm 4 m/s 653 mmHg 62%
    15:00 +10°C° 0.1 mm 4 m/s 652 mmHg 70%
    16:00 +8°C° 0.1 mm 4 m/s 652 mmHg 78%
    17:00 +7°C° 0.5 mm 4 m/s 651 mmHg 81%
    18:00 +6°C° 0.5 mm 4 m/s 651 mmHg 84%
    19:00 +5°C° 0.5 mm 3 m/s 651 mmHg 87%
    20:00 +5°C° 0.2 mm 3 m/s 651 mmHg 86%
    21:00 +5°C° 0.2 mm 3 m/s 651 mmHg 86%
    22:00 +5°C° 0.2 mm 3 m/s 651 mmHg 85%
    23:00 +5°C° 0 mm 3 m/s 651 mmHg 85%

    23 Avril, Mardi

    Heure Température Précipitation Vent Pression Humidité
    00:00 +5°C° 0 mm 3 m/s 650 mmHg 84%
    01:00 +5°C° 0 mm 3 m/s 650 mmHg 84%
    02:00 +5°C° 0.1 mm 3 m/s 650 mmHg 83%
    03:00 +5°C° 0.1 mm 3 m/s 650 mmHg 82%
    04:00 +5°C° 0.1 mm 3 m/s 649 mmHg 81%
    05:00 +7°C° 0 mm 3 m/s 650 mmHg 78%
    06:00 +8°C° 0 mm 3 m/s 650 mmHg 76%
    07:00 +8°C° 0 mm 4 m/s 650 mmHg 73%
    08:00 +9°C° 0 mm 5 m/s 651 mmHg 65%
    09:00 +11°C° 0 mm 6 m/s 652 mmHg 58%
    10:00 +12°C° 0 mm 7 m/s 653 mmHg 50%
    11:00 +12°C° 0 mm 7 m/s 653 mmHg 51%
    12:00 +11°C° 0 mm 7 m/s 652 mmHg 52%
    13:00 +11°C° 0 mm 7 m/s 652 mmHg 53%
    14:00 +10°C° 0.1 mm 6 m/s 652 mmHg 58%
    15:00 +9°C° 0.1 mm 6 m/s 652 mmHg 63%
    16:00 +9°C° 0.1 mm 5 m/s 652 mmHg 68%
    17:00 +8°C° 0.3 mm 5 m/s 652 mmHg 71%
    18:00 +7°C° 0.3 mm 4 m/s 652 mmHg 75%
    19:00 +7°C° 0.3 mm 3 m/s 652 mmHg 78%
    20:00 +7°C° 1 mm 3 m/s 652 mmHg 79%
    21:00 +6°C° 1 mm 4 m/s 652 mmHg 80%
    22:00 +6°C° 1 mm 4 m/s 652 mmHg 81%
    23:00 +7°C° 0 mm 3 m/s 652 mmHg 78%

    24 Avril, Mercredi

    Heure Température Précipitation Vent Pression Humidité
    00:00 +7°C° 0 mm 3 m/s 652 mmHg 75%
    01:00 +7°C° 0 mm 3 m/s 652 mmHg 72%
    02:00 +7°C° 0 mm 3 m/s 652 mmHg 71%
    03:00 +5°C° 0 mm 3 m/s 652 mmHg 69%
    04:00 +5°C° 0 mm 3 m/s 652 mmHg 67%
    05:00 +7°C° 0 mm 3 m/s 653 mmHg 66%
    06:00 +9°C° 0 mm 3 m/s 653 mmHg 65%
    07:00 +10°C° 0 mm 2 m/s 654 mmHg 64%
    08:00 +12°C° 0 mm 3 m/s 654 mmHg 59%
    09:00 +14°C° 0 mm 5 m/s 655 mmHg 54%
    10:00 +16°C° 0 mm 6 m/s 656 mmHg 49%
    11:00 +16°C° 0 mm 5 m/s 656 mmHg 49%
    12:00 +17°C° 0 mm 5 m/s 656 mmHg 49%
    13:00 +17°C° 0 mm 5 m/s 656 mmHg 49%
    14:00 +16°C° 0 mm 5 m/s 656 mmHg 51%
    15:00 +16°C° 0 mm 5 m/s 655 mmHg 52%
    16:00 +16°C° 0 mm 5 m/s 655 mmHg 54%
    17:00 +14°C° 0 mm 4 m/s 655 mmHg 60%
    18:00 +12°C° 0 mm 3 m/s 654 mmHg 66%
    19:00 +10°C° 0 mm 3 m/s 654 mmHg 72%
    20:00 +10°C° 0 mm 2 m/s 654 mmHg 70%
    21:00 +9°C° 0 mm 2 m/s 654 mmHg 67%
    22:00 +9°C° 0 mm 2 m/s 655 mmHg 65%
    23:00 +9°C° 0 mm 2 m/s 654 mmHg 63%

    25 Avril, Jeudi

    Heure Température Précipitation Vent Pression Humidité
    00:00 +8°C° 0 mm 2 m/s 654 mmHg 61%
    01:00 +8°C° 0 mm 3 m/s 654 mmHg 60%
    02:00 +8°C° 0.1 mm 2 m/s 654 mmHg 57%
    03:00 +8°C° 0.1 mm 2 m/s 654 mmHg 54%
    04:00 +8°C° 0.1 mm 2 m/s 654 mmHg 51%
    05:00 +9°C° 0.3 mm 2 m/s 654 mmHg 54%
    06:00 +10°C° 0.3 mm 3 m/s 655 mmHg 57%
    07:00 +11°C° 0.3 mm 3 m/s 655 mmHg 60%
    08:00 +13°C° 0 mm 3 m/s 656 mmHg 55%
    09:00 +16°C° 0 mm 3 m/s 656 mmHg 51%
    10:00 +18°C° 0 mm 3 m/s 657 mmHg 47%
    11:00 +19°C° 0 mm 3 m/s 657 mmHg 43%
    12:00 +20°C° 0 mm 4 m/s 657 mmHg 39%
    13:00 +21°C° 0 mm 4 m/s 657 mmHg 35%
    14:00 +21°C° 0 mm 4 m/s 656 mmHg 39%
    15:00 +20°C° 0 mm 4 m/s 656 mmHg 42%
    16:00 +20°C° 0 mm 4 m/s 655 mmHg 46%
    17:00 +18°C° 0 mm 4 m/s 655 mmHg 49%
    18:00 +15°C° 0 mm 4 m/s 654 mmHg 51%
    19:00 +14°C° 0 mm 3 m/s 654 mmHg 54%
    20:00 +13°C° 0 mm 3 m/s 654 mmHg 57%
    21:00 +13°C° 0 mm 2 m/s 653 mmHg 59%
    22:00 +12°C° 0 mm 2 m/s 653 mmHg 62%
    23:00 +12°C° 0 mm 2 m/s 653 mmHg 65%
    Voir plus